Tracking 19245 objects as of 14-Aug-2018
HD Live streaming from Space Station
objects crossing your sky now

NADEZHDA 6

Track NADEZHDA 6 now!
10-day predictions
NADEZHDA 6 is classified as:


NORAD ID: 26384
Int'l Code: 2000-033A
Perigee: 668.1 km
Apogee: 691.1 km
Inclination: 98.0 °
Period: 98.2 minutes
Semi major axis: 7050 km
RCS: 1.836 m2 (large)
Launch date: June 28, 2000
Source: Commonwealth of Independent States (former USSR) (CIS)
Launch site: PLESETSK MISSILE AND SPACE COMPLEX (PKMTR)

Search and rescue; part of COSPAS/SARSAT fleet.
aabbcc
Your satellite tracking list
Your tracking list is empty




NASA's NSSDC Master Catalog

Two Line Element Set (TLE):
1 26384U 00033A   18226.70798457  .00000061  00000-0  19443-4 0  9997
2 26384  97.9630 286.3734 0016308 125.3012 234.9717 14.66443826968879
Source of the keplerian elements: AFSPC